Location: Svitavy
(49.7500°N, 16.4667°E)
Time: 09:43:40
(UTC+02:00)

ISS - Visible Passes

Search period start: 26 September 2020 00:00
Search period end: 06 October 2020 00:00
Orbit: 419 x 420 km, 51.6° (Epoch: 26 September)

Date Brightness Start Highest point End Pass type
(mag) Time Alt. Az. Time Alt. Az. Time Alt. Az.
26 Sep -3.4 20:11:49 10° W 20:15:10 60° N 20:16:31 32° ENE visible
26 Sep -0.7 21:48:43 10° WNW 21:49:28 16° WNW 21:49:28 16° WNW visible
27 Sep -3.4 19:24:22 10° W 19:27:43 62° N 19:30:53 11° ENE visible
27 Sep -2.8 21:01:19 10° WNW 21:03:50 47° WNW 21:03:50 47° WNW visible
28 Sep -3.7 20:13:54 10° WNW 20:17:17 70° NNE 20:18:11 43° E visible
28 Sep -0.5 21:50:48 10° W 21:51:09 12° W 21:51:09 12° W visible
29 Sep -3.5 19:26:27 10° WNW 19:29:49 62° N 19:32:33 14° E visible
29 Sep -2.2 21:03:19 10° WNW 21:05:30 35° W 21:05:30 35° W visible
30 Sep -3.8 20:15:52 10° WNW 20:19:16 79° SSW 20:19:53 55° SE visible
01 Oct -3.8 19:28:26 10° WNW 19:31:49 83° NNE 19:34:17 17° ESE visible
01 Oct -1.6 21:05:27 10° W 21:07:15 23° WSW 21:07:15 23° WSW visible
02 Oct -2.9 20:17:52 10° W 20:21:05 41° SSW 20:21:42 36° S visible
03 Oct -3.3 19:30:21 10° WNW 19:33:41 58° SSW 19:36:12 16° SE visible
03 Oct -0.9 21:08:13 10° WSW 21:09:10 13° WSW 21:09:10 13° WSW visible
04 Oct -1.6 20:20:09 10° W 20:22:40 20° SW 20:23:45 17° SSW visible
05 Oct -2.0 19:32:23 10° W 19:35:21 28° SW 19:38:17 10° SSE visible
